Location: Cointrin
(46.2167°N, 6.1167°E)
Time: 19:37:31
(UTC+00:00)

Cosmos 1386 Rocket - Pass Details

Date: 08 February 2023
Orbit: 929 x 1005 km, 83.0° (Epoch: 21 March)

Event Time Altitude Azimuth Distance (km) Brightness Sun altitude
Rises 17:41:48 0° 354° (N) 3,594 7.4 -9.4°
Reaches altitude 10° 17:44:21 10° 359° (N) 2,648 6.7 -9.8°
Maximum altitude 17:50:16 56° 77° (ENE) 1,105 4.5 -10.8°
Drops below altitude 10° 17:56:13 10° 156° (SSE) 2,659 6.6 -11.8°
Sets 17:58:46 0° 160° (SSE) 3,610 7.4 -12.2°
